YAMAL 402

Last updated on Jan. 15, 2021, 6:31 a.m. UTC

1 39022U 12070A   21014.89236066  .00000079  00000-0  00000-0 0  9990
2 39022   0.0202  90.9107 0002686 216.3376 183.4462  1.00272878 29541
UTC
Height (km)
Latitude
Longitude
Inclination
Orbital Period
UTC large
Height (km)
Speed (km/s)
/
Latitude / Longitude
Inclination (degrees)
Orbital Period (minutes)
Azimuth
Elevation
Range (km)
Doppler Factor
iOS Compass Heading
iOS Angle

Next 30 passes for location: Hong Kong

Rise time Rise Azimuth (degrees) Set time Set Azimuth (degrees) Duration Max altitude (degrees)

No matching passes for this satellites